Theta_e
312 316 317 317 318 317 315 314 315 315 313 313 315 315 314 314 312 313 310 302 302 306 308 308 309 309 309 309 309 309 309 308 308 308 308 308 308 307 306 305 302 300 301 301 300 298 296 294 293 292 291 292 292 292 292 292 292 292 292 291 290 290 290 289 289 289 289 289 290 289 289 290 289 288 288 288 288 288 288 288 288 287 287 286 286 286
311 316 318 318 318 316 314 313 312 311 310 311 314 314 314 314 313 312 308 302 302 305 308 308 308 308 308 309 309 309 309 309 309 309 309 309 309 308 308 306 304 302 301 301 299 298 296 294 292 291 291 291 291 291 292 292 292 292 291 290 290 290 289 289 289 289 289 289 290 290 290 289 289 288 288 288 288 288 287 288 287 287 286 286 286 286
314 317 318 317 315 311 309 307 308 310 310 311 312 313 313 313 313 311 307 303 302 305 308 309 307 308 309 309 309 309 309 309 310 310 310 311 310 310 309 308 305 303 301 300 298 297 295 294 292 291 290 290 291 291 291 291 291 291 291 290 290 290 289 289 289 289 289 289 289 289 289 288 288 288 288 288 287 287 287 287 287 286 286 286 286 286
316 316 314 311 310 310 307 304 306 309 310 311 312 312 313 314 313 311 308 303 303 305 307 307 307 308 309 308 309 309 309 309 309 309 310 310 311 311 311 309 306 304 302 300 298 296 295 294 292 291 290 290 291 291 291 291 291 291 290 290 290 289 289 289 289 289 289 289 288 288 288 288 288 287 287 287 287 287 287 286 286 286 286 286 286 286
317 313 306 306 309 312 310 305 306 310 311 312 312 313 314 315 313 311 309 305 306 306 304 306 309 310 312 313 312 310 307 307 306 306 307 308 309 310 309 308 306 304 304 301 299 296 295 294 293 291 290 290 290 290 290 290 291 291 290 290 290 289 289 289 289 289 288 288 288 288 287 287 287 287 287 287 287 287 286 286 286 286 286 286 286 285
316 308 305 309 309 310 312 308 309 312 313 313 313 313 313 313 313 312 309 307 310 311 306 307 311 312 316 316 314 312 308 308 308 307 309 309 309 309 307 306 305 304 304 302 300 297 295 294 293 291 290 290 290 290 290 290 291 291 291 290 290 289 289 289 289 289 288 288 288 287 288 288 288 289 288 288 288 287 286 286 286 285 286 286 286 285
314 304 306 314 312 312 313 311 312 312 312 313 312 312 311 310 312 311 309 309 312 313 308 308 312 313 314 313 313 314 312 311 312 311 312 312 312 312 309 306 305 304 303 302 301 298 296 295 293 292 290 290 290 290 290 290 291 291 291 290 290 289 289 289 289 288 288 288 287 287 288 288 289 289 289 288 287 286 286 286 286 286 286 285 285 285
312 306 306 311 313 313 312 313 314 310 312 314 309 309 310 308 309 309 309 310 311 311 308 309 311 312 313 311 312 313 312 311 312 312 313 313 313 313 311 307 305 305 303 302 301 299 297 295 294 293 291 290 290 290 290 290 290 291 290 290 290 289 289 289 289 288 288 288 287 287 287 287 287 287 287 286 285 285 286 285 285 286 286 285 285 285
311 311 310 310 310 311 312 314 313 310 313 313 304 304 306 306 308 308 309 310 308 308 310 311 310 312 314 312 310 310 311 312 312 312 312 314 315 314 311 307 305 305 304 302 301 299 297 296 294 293 291 290 289 289 289 290 290 290 290 290 290 289 289 289 288 288 288 287 287 287 286 286 286 286 286 285 285 285 285 285 285 285 285 285 285 284
310 307 308 311 311 313 312 307 306 311 313 307 302 304 305 304 306 306 308 309 307 309 312 312 310 311 313 313 309 308 310 311 312 313 313 314 315 315 311 308 306 304 303 302 300 299 298 297 295 293 291 290 289 289 289 289 290 290 290 290 289 289 289 288 288 288 287 287 286 286 286 286 286 285 285 284 284 284 284 284 284 284 284 284 284 284
306 301 304 310 311 310 308 301 300 306 307 303 305 308 308 306 305 304 306 308 309 313 314 312 311 311 312 314 312 310 311 311 312 313 313 314 315 313 310 307 305 303 301 300 299 298 298 296 294 292 291 290 289 288 289 289 289 289 289 289 289 289 288 288 288 287 287 286 286 286 286 285 285 285 284 283 283 283 283 283 284 284 283 283 283 283
308 305 307 309 308 306 306 303 301 300 301 304 308 309 311 310 307 307 307 307 311 315 312 310 311 311 312 313 312 311 310 310 312 312 312 314 314 316 313 307 304 302 300 299 297 297 296 295 293 292 291 290 288 288 288 288 289 289 289 289 288 288 288 288 287 287 286 286 286 285 285 285 284 284 283 283 283 283 283 283 283 282 282 282 282 282
312 311 310 308 305 306 310 309 305 302 302 306 308 310 314 315 312 312 312 310 313 314 309 306 309 311 311 311 311 310 310 309 310 311 313 314 314 318 317 307 302 300 298 297 296 295 295 293 293 292 291 290 288 288 288 288 288 288 288 288 288 287 287 287 287 286 286 286 286 285 285 285 284 283 283 282 282 282 282 282 281 281 281 281 281 281
314 313 309 309 308 306 311 312 311 308 305 306 310 312 314 315 315 315 314 311 312 314 308 303 306 310 310 310 311 310 310 311 310 310 312 312 313 316 312 303 300 297 296 296 295 295 294 293 292 292 291 289 288 288 288 288 288 288 288 288 288 287 286 286 286 286 286 285 285 285 285 284 283 282 282 282 282 282 281 281 280 280 280 280 280 280
314 314 310 311 312 309 309 313 316 312 306 307 310 312 314 314 314 313 312 310 312 313 309 304 307 311 310 310 312 311 310 311 311 312 312 310 309 309 304 299 298 296 296 295 294 294 294 293 292 291 290 289 289 288 288 288 288 287 287 287 287 287 286 286 286 286 285 285 285 284 284 283 282 282 282 282 282 281 281 280 280 280 280 279 279 279
313 315 314 311 310 309 310 313 314 311 308 307 307 310 313 313 312 311 312 311 311 312 311 307 309 311 310 310 310 310 311 310 309 310 311 309 308 307 304 301 299 297 296 295 294 294 293 293 292 291 290 289 289 288 288 288 287 287 287 287 287 287 286 286 286 286 285 285 284 284 283 282 282 282 282 281 281 281 280 280 280 280 279 279 278 278
312 314 312 307 306 305 305 308 309 310 311 308 307 310 311 310 311 312 313 311 308 310 313 311 311 311 311 311 309 309 311 309 308 309 308 309 309 308 308 305 301 300 298 296 294 294 293 293 292 291 290 290 289 288 288 288 287 287 287 287 287 286 286 285 285 285 285 284 284 283 282 282 281 282 282 281 281 280 280 279 279 279 279 278 277 277
315 314 312 308 309 304 298 302 306 306 308 307 308 311 309 308 309 310 311 311 310 312 314 313 312 311 312 312 310 308 309 308 308 309 308 308 307 308 309 307 303 302 300 297 295 294 293 292 292 291 290 289 289 289 288 288 287 287 287 287 287 286 285 285 285 285 284 283 282 281 281 281 281 282 281 281 280 280 279 279 278 278 278 277 277 276
315 314 313 307 307 303 297 303 308 304 304 305 306 307 308 310 311 309 310 311 312 313 313 313 313 312 312 312 311 310 310 309 309 309 309 308 306 306 307 306 303 302 300 298 295 293 293 292 292 291 290 289 289 288 288 287 287 286 286 286 286 286 285 285 285 284 283 282 281 281 281 281 281 281 281 280 280 279 279 279 278 277 277 276 276 275
313 313 314 305 301 303 302 305 309 307 304 302 303 304 305 308 311 310 310 310 312 312 313 314 314 313 313 312 312 311 311 311 310 309 309 309 308 308 306 304 303 302 300 298 296 294 292 292 292 291 290 290 289 288 288 287 286 286 286 286 286 285 285 285 284 283 282 281 281 281 281 281 281 281 280 280 280 280 279 278 277 276 276 275 275 275
312 312 314 307 300 304 306 306 310 311 307 304 305 306 305 305 307 308 308 308 310 311 312 313 314 313 312 312 311 311 311 311 311 311 312 311 310 309 307 305 303 302 300 299 296 294 293 292 292 291 290 289 289 288 287 286 286 286 286 286 285 285 284 284 283 282 281 281 281 281 281 281 280 280 280 280 280 279 278 277 277 276 275 275 275 274
313 312 314 311 306 307 309 309 310 312 311 308 307 308 307 308 308 308 310 309 308 311 312 312 313 313 312 313 311 310 311 311 311 312 312 311 310 309 307 305 304 303 302 300 297 295 293 291 291 291 290 289 288 288 287 286 286 285 285 285 285 284 284 283 282 281 281 281 281 281 281 280 280 280 280 280 279 278 278 277 276 275 275 275 274 274
316 315 313 314 313 311 308 305 304 307 311 310 308 309 309 308 309 311 313 312 308 309 310 310 311 312 313 313 312 313 313 311 312 314 313 311 310 309 307 305 303 302 301 299 296 294 293 291 291 290 289 289 288 287 286 286 285 285 285 285 284 284 283 282 282 281 281 281 281 280 280 280 280 280 280 279 278 278 277 276 275 275 275 274 273 273
315 315 313 313 314 312 305 300 299 303 307 308 308 308 308 308 310 310 310 310 309 310 309 309 310 311 312 314 314 315 315 313 312 313 313 313 310 308 307 305 302 300 298 297 295 293 291 291 290 289 289 288 287 287 286 285 285 285 284 284 284 283 282 282 281 281 281 281 280 280 280 280 280 280 279 278 278 277 276 276 275 275 274 273 272 272
312 315 315 313 314 314 310 306 304 302 304 306 306 306 308 308 309 309 307 306 309 311 310 310 311 311 312 314 313 311 312 313 310 307 308 309 309 308 307 305 301 299 296 295 294 292 290 289 289 288 289 288 287 286 286 285 285 284 284 283 283 282 282 281 281 281 280 280 280 279 280 280 280 279 278 278 277 276 276 276 275 275 273 272 272 271
313 315 313 313 314 313 312 312 310 306 304 305 305 305 307 308 308 308 308 308 310 311 309 310 311 311 311 313 311 309 310 311 309 306 305 305 305 305 305 303 301 298 296 295 293 292 290 289 289 288 288 288 287 286 286 285 285 284 283 283 282 282 281 280 280 280 280 279 279 279 279 279 279 278 278 277 276 276 276 275 274 273 272 272 271 271
315 315 312 312 313 312 312 312 311 309 305 306 306 305 306 308 309 309 309 310 311 310 309 310 311 311 311 310 310 310 310 310 309 308 308 306 304 302 301 302 301 299 297 295 293 292 290 289 289 288 288 288 287 286 285 285 284 284 283 282 282 281 280 280 280 280 279 279 278 279 279 279 278 278 277 276 276 276 275 275 274 273 272 272 271 270
314 314 311 312 312 311 312 311 310 311 308 307 308 307 306 307 309 311 311 310 310 309 310 311 311 311 311 310 309 310 309 309 309 309 309 309 306 303 302 304 304 301 299 296 294 293 291 290 289 288 288 287 286 286 285 284 284 283 282 281 281 280 279 279 279 279 278 278 278 278 278 278 278 277 276 276 275 275 275 274 274 273 272 271 270 269
311 313 312 312 312 310 310 310 310 311 309 308 309 308 307 307 308 310 310 310 310 310 311 311 311 312 311 309 310 310 309 309 309 309 309 308 307 305 304 305 305 303 301 298 296 294 292 290 289 288 287 287 287 286 285 284 283 282 282 281 280 279 279 279 279 278 277 277 278 278 278 277 277 276 275 275 275 275 274 274 273 273 271 270 270 270
310 311 312 312 311 311 311 311 310 310 309 309 309 309 309 308 308 309 309 309 310 310 310 310 311 311 310 310 310 310 310 310 309 309 308 308 307 307 306 306 306 305 303 299 296 294 292 291 290 289 287 287 286 286 285 284 283 282 281 280 279 278 278 278 278 277 277 277 277 277 277 276 276 275 275 275 274 274 273 273 272 272 271 270 270 270
310 311 311 311 311 312 311 310 310 310 309 309 309 309 309 308 308 308 308 308 309 309 309 309 310 310 309 309 309 309 309 309 308 308 308 307 307 307 306 306 306 306 305 301 298 296 293 291 290 289 287 287 286 286 285 284 283 282 281 279 278 278 277 277 277 276 276 277 277 277 276 275 275 274 274 274 274 273 272 272 271 271 270 270 269 269
309 310 310 310 311 312 311 310 311 309 309 309 309 309 308 308 308 308 308 308 308 309 309 309 309 309 308 308 309 308 308 308 308 308 307 307 307 307 307 306 306 306 306 304 302 299 295 292 290 289 288 287 287 286 285 284 282 281 280 279 278 277 277 276 276 276 276 276 276 276 275 275 274 274 274 273 273 272 272 271 270 270 269 269 268 268
308 309 310 311 311 312 312 311 311 311 311 310 310 309 309 309 309 309 309 309 309 309 309 309 309 309 308 309 309 308 308 308 308 308 308 308 307 307 307 306 306 306 306 306 305 302 297 293 291 289 288 288 287 286 284 283 282 281 280 278 277 276 276 276 276 275 275 275 275 275 274 274 274 274 273 273 272 272 271 270 269 269 268 268 268 267
309 309 310 311 311 312 312 312 311 313 313 312 311 310 310 309 309 310 310 310 309 309 309 309 309 308 309 309 309 309 309 309 309 309 308 308 307 307 307 306 307 307 306 307 307 303 298 295 292 290 289 288 287 285 284 282 281 280 279 278 277 276 275 275 275 274 274 274 274 274 274 274 274 273 273 272 271 271 270 269 269 268 268 267 266 266
310 309 309 310 311 312 312 312 313 314 313 312 312 311 309 309 309 310 310 310 309 310 310 310 309 309 309 310 310 310 309 309 309 308 308 308 307 307 307 307 306 307 307 307 306 304 299 295 292 290 289 288 286 284 283 281 281 280 278 277 276 275 275 274 274 273 273 273 273 273 274 274 273 273 272 271 271 270 269 268 268 268 267 266 266 266
310 309 309 310 311 311 311 312 314 314 312 311 311 310 309 310 310 310 311 311 309 309 310 310 310 309 310 310 309 309 309 308 308 308 308 308 307 307 307 306 306 307 307 307 307 304 300 295 292 290 288 287 285 283 282 281 280 279 277 276 275 274 274 273 273 272 272 272 273 273 273 273 273 272 271 271 270 270 269 268 267 267 266 266 266 266
310 310 310 310 311 311 311 311 313 313 312 311 312 310 310 310 310 311 312 311 309 308 309 309 309 309 309 309 309 308 308 308 307 308 307 307 308 307 306 306 307 307 306 306 306 303 298 294 292 290 288 286 284 282 281 280 279 278 276 274 274 273 273 272 272 272 272 272 273 273 273 273 272 272 271 270 270 269 268 267 267 266 266 266 266 266
309 309 310 311 312 312 312 312 313 313 313 312 312 311 310 310 310 310 311 311 309 309 309 309 309 309 309 309 308 308 309 308 308 308 308 308 308 307 306 306 306 306 306 305 303 299 295 293 291 289 287 285 283 281 280 279 278 276 274 273 273 272 272 272 271 271 272 272 273 273 273 273 272 271 271 270 270 269 267 267 267 266 266 266 266 266
309 309 309 311 312 312 313 313 314 314 313 312 311 310 310 311 311 309 310 311 310 308 309 309 309 309 309 309 308 308 309 309 309 308 308 308 308 308 307 306 305 304 303 300 298 296 293 290 289 287 285 283 281 280 279 278 277 275 274 273 272 272 272 271 271 272 272 272 273 273 273 272 272 271 270 270 270 268 268 268 266 266 266 267 266 265
310 309 309 310 311 311 313 313 313 313 314 313 312 310 310 311 310 310 311 312 310 308 309 309 309 309 308 308 309 309 309 309 309 309 308 308 307 307 306 306 305 303 299 295 293 292 289 287 286 284 283 281 280 279 278 277 276 274 273 272 272 272 272 271 272 272 272 272 272 273 272 272 271 271 270 270 269 267 268 268 266 266 267 267 266 265
311 310 310 311 311 311 312 313 313 313 314 313 312 310 311 310 310 311 312 312 309 310 310 309 309 309 309 308 309 309 309 308 308 308 309 308 305 304 302 300 298 297 295 292 290 288 286 284 284 283 282 281 279 277 276 276 275 274 273 272 272 272 272 272 272 272 272 272 272 272 271 271 270 270 270 270 268 267 268 267 266 267 268 267 266 265
311 311 311 312 312 311 311 312 312 312 313 312 310 310 309 310 311 311 311 310 310 311 311 310 310 309 309 309 308 308 308 308 308 308 308 307 305 303 299 295 293 291 290 289 287 285 284 283 282 282 281 279 277 276 275 275 274 274 273 272 272 272 271 271 271 271 272 272 272 271 270 270 269 269 270 269 268 268 268 267 266 267 268 267 266 265
313 313 312 312 312 312 312 313 313 314 314 311 311 310 308 310 312 311 310 311 312 311 310 310 310 309 308 308 308 308 307 307 307 307 307 307 305 302 297 293 292 291 288 287 286 284 283 283 282 280 279 277 276 275 274 274 274 273 272 272 272 271 271 271 271 271 271 271 271 270 270 269 268 269 269 268 268 268 268 267 267 268 268 267 266 265
314 315 313 312 312 313 313 313 313 313 312 311 311 310 308 309 310 310 310 311 311 311 311 310 309 309 309 308 307 307 307 307 307 307 306 306 305 301 295 292 291 289 287 286 284 283 282 282 281 278 276 275 274 273 274 274 274 273 272 272 270 270 270 271 271 271 271 270 270 269 269 268 268 269 268 267 267 268 268 268 268 268 267 266 265 264
315 314 314 313 312 313 314 313 312 311 310 310 311 310 309 309 309 310 311 311 311 311 311 310 309 309 308 308 308 307 307 307 306 306 306 305 304 300 294 290 289 288 286 284 283 282 282 281 278 276 273 273 273 273 273 274 274 272 271 270 269 270 271 271 271 271 270 269 269 268 268 267 268 268 267 267 267 268 267 268 268 268 267 265 264 264
314 313 313 313 312 312 312 312 311 310 310 310 310 310 310 310 309 309 310 310 310 310 310 310 309 309 309 308 308 307 306 306 306 306 306 305 303 299 294 290 288 286 285 283 282 281 280 278 276 274 272 272 272 272 272 273 273 272 270 270 270 271 272 272 271 270 269 268 268 267 267 267 267 267 266 266 267 267 267 267 268 267 266 264 264 265
313 312 312 313 313 314 315 314 312 312 311 310 310 310 309 309 309 309 309 309 309 309 309 309 309 309 309 309 307 307 306 306 306 306 306 305 303 300 296 292 289 286 284 283 281 279 278 276 275 273 272 271 271 271 272 272 272 272 271 271 271 271 272 272 271 269 267 267 267 266 267 267 267 266 266 266 266 267 266 266 267 267 265 264 264 265
312 311 310 312 312 312 313 313 312 312 312 310 311 312 310 309 308 308 308 308 308 308 308 308 309 309 308 308 307 306 306 306 306 306 306 306 303 300 296 292 288 285 283 281 279 277 276 276 275 273 272 271 270 271 271 271 271 271 270 270 271 271 271 270 270 269 267 267 266 266 266 267 267 266 266 266 266 266 266 266 267 267 265 263 264 265
309 308 309 311 311 311 311 311 311 312 312 311 312 313 311 309 309 309 309 308 308 308 307 307 307 307 306 306 306 306 307 307 306 306 306 305 303 300 296 292 288 285 282 280 278 276 276 275 274 273 271 270 270 270 270 269 269 268 268 269 270 271 271 269 269 268 267 265 265 266 266 267 267 266 266 266 266 266 266 266 267 267 265 264 265 266
304 305 306 308 309 309 310 311 312 312 312 312 312 312 311 310 310 309 308 308 308 307 307 307 307 306 306 306 305 306 307 306 306 306 306 305 303 300 295 290 286 283 281 279 277 275 275 275 273 272 271 269 269 269 268 267 267 266 267 269 271 271 271 269 267 265 264 264 265 266 266 266 266 266 266 266 266 266 266 266 266 267 265 264 265 266
304 304 305 306 307 308 308 310 311 311 310 310 310 310 310 310 309 308 308 307 308 308 308 308 308 307 306 306 306 306 305 305 305 306 305 304 302 299 294 289 286 283 280 278 276 275 275 274 272 271 270 268 268 267 266 265 265 264 266 269 270 271 271 270 267 264 263 265 266 266 267 266 266 265 266 266 266 266 266 266 266 266 265 265 265 266
Wind_Speed
1 4 5 9 11 9 10 13 9 3 0 3 2 4 8 8 10 9 2 4 2 4 11 15 15 18 20 19 20 18 9 12 18 18 18 16 11 11 12 11 11 13 12 10 13 16 20 23 27 28 29 33 35 36 36 36 35 33 31 29 27 26 24 22 21 19 18 15 13 11 9 8 8 8 8 8 9 10 10 11 11 11 11 12 12 13
1 6 11 14 10 3 4 8 5 2 2 4 5 5 7 7 9 7 2 4 3 2 9 12 14 17 19 19 20 18 13 17 22 19 19 19 14 12 13 13 11 11 8 8 11 14 18 22 27 30 32 35 35 36 38 38 37 35 33 31 28 27 26 23 22 21 19 17 14 11 10 10 9 9 8 7 9 10 11 11 11 12 12 13 13 14
3 10 14 6 3 6 4 2 5 4 4 3 4 4 6 5 6 6 1 4 3 3 6 7 12 17 19 19 21 22 17 18 20 18 19 19 17 16 13 10 10 9 9 10 12 14 18 21 26 30 31 34 35 35 39 39 38 37 34 32 29 28 27 24 23 22 19 18 17 14 12 11 10 9 9 9 9 11 11 11 12 12 13 14 14 15
4 8 8 3 8 7 3 3 5 3 3 5 4 4 7 3 2 5 0 3 3 4 7 9 12 14 16 16 19 20 14 13 15 16 18 17 18 19 11 6 8 11 12 12 13 14 17 19 24 26 27 30 30 33 40 41 39 40 37 33 31 29 28 26 25 22 19 18 16 14 13 12 11 10 10 10 10 12 12 12 12 12 13 14 15 16
8 4 1 4 5 6 4 4 7 5 4 6 6 8 10 6 5 6 2 3 4 4 3 9 12 11 9 9 10 6 3 7 10 11 15 15 16 15 10 6 9 11 12 12 14 14 16 19 23 25 25 28 29 32 41 44 41 41 39 35 33 30 29 27 25 22 20 18 15 13 11 10 10 9 9 10 10 10 11 11 11 12 14 14 16 17
9 2 4 4 3 4 5 5 7 8 5 5 8 13 13 8 6 4 3 5 6 3 0 4 10 9 5 6 6 1 1 6 5 6 12 13 11 10 10 9 9 11 11 11 13 15 16 19 22 22 24 28 30 32 39 44 44 43 41 37 34 31 29 28 25 22 20 17 15 13 9 7 7 7 7 8 8 9 10 11 12 14 14 15 16 18
4 1 2 4 5 5 6 6 7 9 5 4 4 7 11 8 5 3 0 2 5 3 1 3 7 10 2 6 5 3 4 7 5 7 11 11 9 8 8 8 9 10 10 10 12 14 15 18 20 22 26 31 31 30 36 43 44 43 42 39 35 33 30 28 25 23 21 18 16 14 11 9 8 7 7 9 11 12 13 14 14 14 15 15 17 18
2 4 2 4 5 5 6 6 7 11 6 3 1 1 4 5 5 4 3 5 5 4 2 3 5 12 9 7 7 7 8 8 9 13 13 12 12 10 8 7 9 11 10 10 11 13 15 17 20 23 27 30 30 30 36 43 44 43 42 39 36 33 30 28 26 24 22 19 18 16 15 13 12 11 10 11 13 14 15 16 15 15 16 16 17 18
2 4 6 8 6 6 6 2 6 13 7 0 2 3 4 4 3 4 4 5 3 4 4 7 7 10 11 6 5 5 9 10 12 14 16 15 12 8 7 8 10 10 9 10 11 12 14 17 21 24 25 26 28 32 38 42 44 43 42 39 36 33 31 29 27 25 23 21 19 18 16 15 14 15 14 13 14 15 15 16 16 15 16 17 18 19
2 3 4 7 7 6 3 4 1 8 5 3 5 5 7 5 4 3 3 3 2 4 7 8 11 8 11 5 7 1 5 9 11 11 13 13 9 5 5 7 8 8 8 9 10 11 12 15 19 20 21 24 27 32 37 40 42 42 41 39 37 34 32 30 28 26 24 22 21 20 19 17 16 16 15 13 14 15 15 16 16 16 17 18 19 19
2 1 2 3 4 2 5 6 4 1 2 5 6 4 4 3 3 1 1 1 4 7 7 12 17 12 10 2 9 5 4 8 9 9 10 10 8 6 5 6 6 7 6 7 8 8 10 12 15 17 19 22 24 27 33 37 41 41 40 39 36 34 33 32 30 27 24 23 22 22 22 21 19 18 17 15 15 15 15 16 16 16 17 18 19 20
3 3 2 2 1 3 5 5 4 4 2 3 3 2 1 2 2 2 1 2 6 7 4 8 13 15 12 4 7 5 3 6 9 9 10 10 9 6 4 4 5 5 5 6 7 7 9 10 13 17 19 21 22 25 29 33 37 40 39 38 35 34 34 33 30 28 25 23 23 24 23 22 21 20 19 17 16 15 15 16 16 16 17 18 18 19
3 4 3 2 0 3 5 4 3 2 2 3 4 3 3 4 1 3 3 4 7 5 2 2 4 10 15 11 6 3 4 8 8 8 9 8 7 5 3 3 3 4 5 6 7 7 9 10 11 16 20 21 23 27 28 30 35 38 38 37 35 33 34 33 31 28 25 24 24 25 24 24 23 21 19 18 16 15 15 15 15 16 16 16 16 17
3 1 5 5 3 5 9 8 4 4 6 8 7 6 5 4 2 5 5 3 5 4 3 4 2 6 11 9 12 15 15 13 9 9 10 7 6 4 2 2 1 3 4 6 7 8 9 10 11 15 20 22 24 28 29 31 37 39 37 36 33 33 34 33 31 28 26 25 25 25 25 24 22 20 19 18 16 16 15 15 15 16 16 16 17 19
5 5 7 9 3 9 15 10 2 5 7 8 5 3 4 4 4 6 5 5 7 5 2 4 2 5 5 2 5 9 10 10 8 9 8 6 7 3 1 1 3 4 6 6 7 8 9 10 13 15 19 21 23 27 29 31 37 39 38 36 32 33 35 33 32 29 26 26 26 26 26 24 22 19 18 17 17 17 16 16 16 16 16 17 18 20
5 8 4 4 0 9 11 4 3 6 5 4 2 2 4 3 5 4 3 2 3 7 5 5 4 6 3 1 3 2 2 5 8 9 8 8 9 5 3 6 6 6 7 7 7 8 9 11 13 15 17 19 21 24 27 30 36 38 38 36 33 35 37 34 32 30 27 27 27 26 26 23 21 19 18 18 17 16 16 15 16 16 17 18 18 20
4 5 3 3 2 4 2 2 2 1 2 4 3 5 2 0 3 4 3 1 1 7 7 4 6 9 6 5 7 7 6 6 7 10 10 11 10 6 5 8 8 7 7 7 7 8 9 10 13 15 18 19 21 25 28 31 36 39 39 38 33 35 38 35 33 31 28 28 27 26 25 22 21 20 18 18 16 15 15 14 15 16 17 17 18 19
4 3 2 4 1 1 3 2 2 3 1 4 4 5 3 2 0 2 3 1 2 8 7 6 11 12 10 6 3 7 9 9 10 11 10 10 9 6 7 9 9 8 6 7 8 8 8 10 13 16 19 21 23 25 27 29 33 36 39 40 36 37 38 35 32 30 29 28 27 25 24 22 21 20 18 16 14 13 13 14 14 15 16 17 17 18
2 3 3 2 1 3 1 2 3 2 2 1 2 1 1 2 3 3 2 3 6 7 6 11 16 15 12 8 2 7 11 11 13 12 9 10 10 8 10 12 11 8 6 7 8 8 8 10 13 17 19 20 22 23 23 27 32 34 37 40 38 38 38 35 32 30 29 28 27 25 24 22 20 18 16 14 12 12 12 13 14 15 16 16 16 17
2 4 3 1 2 3 3 4 6 5 2 0 2 1 1 2 3 3 3 2 5 6 7 14 17 14 8 5 4 8 12 12 12 10 10 12 12 9 9 10 9 7 7 8 8 8 9 11 13 16 18 18 20 20 21 27 32 33 35 38 38 36 36 34 32 30 28 27 26 25 23 21 19 16 14 12 11 11 12 12 13 14 15 15 16 16
3 3 4 1 1 1 5 7 9 9 8 5 5 6 4 2 1 2 2 1 3 6 6 9 12 14 4 6 6 9 10 12 11 9 10 10 10 9 9 9 8 8 9 9 8 8 9 10 11 15 16 16 18 19 21 27 30 29 32 36 36 36 35 33 32 29 28 27 26 25 22 20 17 14 12 11 10 11 11 12 13 13 14 15 16 15
4 4 5 3 3 5 6 5 3 4 5 7 8 8 9 7 4 3 5 3 2 5 8 6 10 15 5 5 4 5 6 8 8 9 10 8 9 10 9 10 10 9 9 8 8 8 7 8 10 13 15 16 18 19 22 26 27 28 31 34 35 36 35 33 31 29 28 27 26 24 21 18 16 13 11 10 10 10 10 11 12 13 14 15 15 15
3 2 5 7 6 5 3 1 1 4 1 2 4 6 8 8 8 8 7 4 2 4 7 4 7 14 4 5 2 4 4 5 6 8 8 6 7 9 9 10 9 7 7 6 6 6 6 6 9 12 15 17 18 19 21 24 26 28 30 33 35 36 35 34 32 30 29 27 26 23 20 18 15 12 11 9 9 9 9 11 12 13 14 14 14 14
2 1 4 6 6 3 1 2 1 1 1 3 6 6 7 8 10 7 3 1 2 6 8 3 6 13 4 4 4 3 1 3 4 5 6 5 6 7 8 7 6 6 6 5 5 5 5 6 8 10 13 16 17 19 21 23 24 26 29 33 36 35 35 34 32 31 30 27 25 22 20 17 14 12 10 9 9 8 9 10 11 12 13 13 13 13
4 4 4 4 6 6 4 4 3 2 4 5 5 6 8 10 9 3 2 0 4 13 13 5 8 14 5 3 3 1 0 6 6 3 3 5 5 5 5 4 5 6 7 7 7 6 7 8 9 10 11 14 17 18 21 23 24 25 29 34 36 34 34 34 32 32 30 27 25 22 19 16 14 12 10 8 8 8 9 10 11 12 12 11 12 13
6 5 7 7 9 9 11 10 4 4 6 4 2 6 11 12 13 7 3 5 9 14 13 8 11 16 10 7 9 5 3 8 7 3 4 7 6 6 4 3 5 6 7 9 8 8 9 9 10 10 11 14 17 19 21 22 24 25 28 33 36 35 34 33 33 32 30 27 24 21 19 17 14 12 10 8 8 8 9 10 10 11 11 11 13 14
3 5 12 14 14 13 15 15 5 6 7 7 6 10 12 15 17 11 7 11 9 5 7 13 19 19 17 19 23 17 11 12 8 4 6 8 7 6 6 6 8 8 7 8 8 8 9 10 11 13 13 15 17 19 21 23 24 26 28 31 35 36 35 34 33 32 30 27 24 21 19 17 14 12 10 8 8 8 8 9 10 11 11 11 12 13
2 5 13 18 20 18 18 23 18 8 8 9 9 12 14 16 18 16 17 16 6 2 8 20 23 20 16 20 27 27 20 17 13 10 11 10 6 7 8 9 10 9 8 8 9 9 11 11 12 13 14 16 18 20 22 23 24 26 28 30 34 36 36 35 34 32 30 27 24 22 20 17 14 12 10 9 8 8 8 9 10 10 10 10 11 12
3 6 10 14 19 19 19 25 27 19 13 11 11 12 14 16 19 22 23 18 9 9 16 21 22 20 16 20 29 28 19 15 15 16 17 12 4 6 8 11 11 10 10 10 10 11 13 12 13 14 15 16 19 22 23 23 24 25 26 30 34 36 36 36 35 32 30 27 25 23 20 17 14 12 10 9 7 7 8 9 9 9 9 9 11 12
1 4 8 12 15 18 20 24 25 22 19 18 16 13 14 20 23 21 19 18 19 22 22 20 23 21 18 24 27 21 15 14 14 17 17 13 8 8 9 11 12 11 11 11 12 13 14 14 14 15 15 16 19 23 24 24 25 26 27 29 33 35 36 37 35 33 30 28 25 23 20 17 14 12 10 9 8 8 8 8 8 8 8 9 11 12
2 6 10 11 11 15 20 24 26 24 20 20 17 13 18 27 24 18 18 19 20 22 21 19 19 18 19 24 21 16 17 18 17 20 21 20 19 15 12 13 16 13 9 11 13 13 13 14 13 14 16 17 20 24 26 25 26 27 27 29 32 35 37 37 35 33 30 27 25 22 19 16 14 12 10 9 8 8 7 7 6 6 8 9 11 12
4 8 9 9 9 13 18 22 24 21 15 11 11 17 26 28 20 18 20 18 16 19 21 18 14 14 18 20 18 19 22 21 20 22 22 19 16 12 12 17 20 16 11 10 12 12 13 14 15 17 18 18 21 25 26 26 26 26 27 30 33 36 37 36 34 32 29 26 24 22 19 17 15 12 11 10 9 8 6 5 5 5 7 9 10 10
6 7 8 8 8 12 18 19 17 13 7 4 12 24 29 25 22 24 24 23 22 21 17 14 12 15 17 17 18 21 20 19 20 20 19 17 12 9 13 17 19 18 16 15 12 10 12 14 15 17 18 18 23 28 28 29 30 28 30 34 36 38 37 35 33 31 28 26 24 22 19 17 15 13 12 10 9 7 5 4 4 5 7 8 9 9
8 8 8 7 6 11 15 13 9 9 11 12 16 21 23 25 29 29 26 25 24 18 12 12 14 18 21 20 21 19 18 20 21 20 21 19 11 8 16 21 20 21 22 19 11 9 11 12 12 14 16 19 23 26 27 29 30 28 33 37 37 37 37 34 31 30 28 26 24 22 19 17 15 14 12 10 8 6 4 2 3 4 6 7 7 8
9 10 9 6 6 8 8 6 7 11 14 12 9 12 20 27 29 30 29 27 23 17 16 18 21 23 23 23 21 19 20 22 21 21 25 23 14 12 19 22 22 23 23 18 11 8 9 11 11 12 15 18 22 24 25 27 29 32 36 38 37 37 36 34 31 29 28 26 24 22 20 18 16 14 12 10 8 5 3 1 3 4 5 6 6 7
12 10 7 6 7 5 4 8 10 7 3 2 4 11 17 19 21 25 26 23 20 17 18 22 24 24 25 26 23 22 22 19 15 18 24 23 18 17 19 19 21 22 21 16 11 9 9 10 12 14 16 19 22 25 25 28 34 38 37 37 38 37 35 33 31 28 27 26 24 22 20 18 17 15 12 10 8 5 2 1 2 3 5 6 6 8
16 11 7 8 9 7 8 11 11 7 3 3 8 13 14 15 17 18 15 12 12 14 19 22 23 24 28 27 25 23 18 10 10 15 23 26 20 16 19 20 20 21 20 16 11 8 10 13 15 18 20 21 24 28 29 33 40 41 38 36 36 36 34 32 30 28 27 27 25 23 21 19 17 15 13 11 8 5 2 1 2 3 4 5 7 9
18 15 12 10 8 9 11 9 8 9 8 10 15 17 18 20 15 8 7 7 8 15 24 24 22 25 26 24 24 21 9 4 9 14 20 26 17 12 17 20 18 18 17 12 5 3 6 11 16 20 23 24 26 32 36 40 44 43 38 36 35 34 32 29 29 29 29 28 25 23 21 19 17 15 13 11 8 4 2 1 2 3 3 6 8 10
21 16 14 13 8 8 10 9 9 10 7 10 17 21 25 25 11 2 5 8 10 20 27 25 24 25 23 22 23 16 5 5 11 13 19 23 13 9 13 14 12 12 9 4 4 5 7 12 17 21 25 26 28 35 41 45 47 44 38 36 36 32 26 27 31 32 30 28 25 23 21 19 16 15 13 10 7 4 2 0 2 3 5 7 9 10
20 13 11 12 10 11 14 11 8 8 5 9 17 21 21 13 6 5 8 10 15 24 26 25 26 24 21 22 19 12 9 11 13 16 19 14 5 6 9 8 7 7 4 4 6 9 13 18 20 19 20 24 31 39 46 48 47 44 38 36 34 26 23 29 34 32 30 28 25 23 20 18 16 14 11 9 6 4 2 1 2 4 6 8 9 10
12 10 11 12 11 14 17 12 8 9 6 9 17 19 9 9 9 9 14 12 17 23 22 20 22 20 19 19 14 10 14 15 17 20 17 7 3 6 6 3 3 4 5 6 11 16 17 17 19 18 19 27 36 42 48 49 46 42 39 35 28 24 27 33 33 30 29 27 24 22 19 17 15 13 10 8 6 4 2 1 2 4 7 9 10 11
7 7 10 11 9 11 13 10 10 10 6 11 19 16 10 10 8 12 15 15 18 20 18 16 16 15 16 16 13 13 16 17 18 20 17 13 13 9 4 4 4 4 5 7 14 20 16 11 14 18 22 33 41 45 49 50 44 39 37 30 25 26 31 32 30 30 29 26 24 22 18 16 14 11 9 8 5 3 2 1 3 5 7 9 10 12
9 7 7 9 8 9 10 8 9 7 9 20 23 13 10 13 15 13 15 17 17 17 17 15 14 14 14 14 13 15 17 18 18 17 16 17 15 9 6 7 6 6 8 7 12 20 18 10 10 18 26 35 42 45 49 49 42 38 33 26 25 30 32 30 30 29 27 25 24 21 18 16 14 11 9 7 5 3 2 1 3 5 7 8 9 10
10 9 7 6 8 8 9 9 10 12 14 21 21 13 14 20 20 17 18 17 14 15 14 13 14 15 15 15 16 17 17 17 17 17 16 15 13 8 7 7 6 7 8 5 8 19 20 10 8 18 29 36 41 45 50 50 43 37 31 26 28 32 32 31 30 28 26 26 24 21 19 16 13 11 9 7 5 3 2 1 3 5 7 9 8 7
12 14 14 11 11 11 11 10 11 13 13 15 18 18 20 23 22 22 21 17 14 14 12 11 14 16 16 17 17 16 15 15 17 16 15 15 13 8 6 6 7 7 7 6 9 18 22 19 17 20 24 32 40 43 46 47 44 36 29 27 32 35 34 33 32 29 28 26 24 22 20 17 14 11 9 7 5 4 3 2 4 6 8 8 6 4
7 12 14 12 10 11 14 13 12 13 14 16 18 20 22 22 19 18 19 17 15 13 11 12 14 14 15 15 13 12 14 16 17 16 15 14 11 6 7 7 7 8 8 8 10 15 22 26 24 18 16 24 36 39 39 42 43 39 33 33 36 37 36 36 34 31 28 26 24 23 21 18 15 12 9 7 6 4 3 3 5 7 7 6 3 4
5 7 8 8 10 11 10 10 10 14 16 15 16 18 20 20 16 14 15 16 17 18 17 16 15 15 14 11 9 11 15 16 16 15 14 12 9 7 9 10 9 9 10 11 15 20 20 18 16 14 12 18 31 39 38 38 40 40 39 40 40 39 37 37 35 31 28 26 25 23 21 18 16 13 10 9 7 6 5 4 6 7 6 3 3 5
4 6 5 5 9 10 9 10 13 15 15 14 12 11 12 15 17 17 16 16 16 18 18 18 17 16 13 10 10 13 16 16 16 15 13 10 9 8 9 9 9 10 9 10 19 26 20 12 14 17 14 17 31 40 39 36 37 38 40 42 41 40 38 36 34 32 29 27 26 24 21 19 17 14 12 10 9 8 6 5 6 7 4 0 2 5
7 7 7 8 10 11 12 14 15 15 17 17 15 11 9 11 13 13 13 14 14 16 18 18 17 15 14 14 14 14 15 15 16 15 13 11 10 10 10 10 10 11 10 11 21 27 19 12 16 17 14 21 36 42 39 37 38 38 40 42 41 41 39 35 33 31 29 27 26 24 21 19 17 15 13 11 10 8 6 5 5 6 4 0 3 6
9 10 10 10 12 12 11 11 10 10 11 13 13 14 13 11 12 12 13 14 14 15 17 17 17 17 15 15 15 15 15 16 17 17 14 12 12 12 12 11 10 10 10 12 19 21 15 15 22 21 18 28 42 43 39 39 39 38 40 42 42 42 40 37 34 31 28 27 26 24 22 19 17 15 13 12 12 9 7 6 4 4 3 1 4 7
9 11 10 10 13 13 12 10 8 7 9 10 13 16 15 11 11 12 12 12 13 14 13 14 15 17 17 17 16 15 15 17 18 16 13 12 12 11 10 12 12 12 12 12 15 14 13 18 25 22 22 33 43 43 40 41 39 39 41 43 43 43 41 40 37 32 28 27 26 24 23 20 17 15 13 12 11 10 10 9 6 3 3 0 4 7
Wind_Direction
253 229 225 237 234 217 203 209 225 265 30 246 250 244 252 255 265 267 116 110 169 241 248 248 254 260 264 265 268 272 252 243 254 251 256 257 248 242 233 221 206 215 222 204 198 191 187 193 195 197 197 196 196 196 197 196 198 199 199 199 198 198 198 197 197 198 199 199 201 206 205 205 213 227 236 248 252 254 261 266 270 274 280 289 296 301
207 230 238 241 237 201 185 204 197 165 172 224 235 247 256 249 261 274 90 118 149 227 255 255 264 262 260 263 267 266 251 251 257 253 258 261 257 248 234 223 211 212 209 181 188 185 183 190 195 198 198 195 194 195 195 196 197 199 200 200 199 199 199 198 199 200 200 201 200 200 203 208 216 230 235 241 248 256 262 265 269 273 280 288 292 296
211 238 246 243 115 87 71 152 181 199 195 209 228 248 263 257 275 287 89 109 149 228 270 275 279 270 261 259 260 259 247 247 257 257 260 265 264 258 241 222 204 203 208 196 194 187 183 187 191 196 197 196 195 195 196 196 197 198 199 199 200 201 201 201 203 203 204 206 206 205 210 217 220 231 239 239 244 255 261 262 267 273 280 285 290 292
210 249 261 84 113 132 89 111 171 191 197 208 210 230 251 252 285 271 220 95 182 227 288 292 282 270 259 254 252 255 254 253 260 260 261 261 258 260 257 218 194 204 213 203 195 189 186 186 188 193 195 194 194 194 196 197 197 198 198 199 200 201 202 203 206 206 206 209 212 214 220 227 231 238 247 251 254 259 263 266 270 275 279 285 289 290
233 243 77 92 134 165 144 151 182 197 214 217 214 226 245 247 231 244 337 346 249 214 287 298 287 267 234 230 244 251 266 260 256 257 261 257 249 254 261 229 201 213 215 198 192 190 187 189 191 192 191 191 193 196 198 197 197 198 198 200 201 202 203 205 206 206 207 210 213 217 224 235 243 246 250 254 257 257 262 268 273 278 282 285 287 289
248 212 122 123 122 165 175 191 199 202 218 229 221 225 240 257 251 246 21 344 288 246 256 336 309 285 169 170 237 232 259 259 235 229 251 257 245 236 243 227 206 218 217 198 194 189 188 191 191 189 188 192 196 198 199 198 198 199 200 201 202 202 204 205 206 206 207 209 212 213 213 221 232 236 235 239 244 249 258 266 271 278 282 284 285 288
247 89 105 152 151 169 199 231 205 186 214 245 222 220 233 248 259 258 321 285 278 282 340 21 307 288 209 165 203 184 227 255 243 240 249 255 249 230 226 206 198 217 212 201 200 190 188 189 187 189 192 195 198 198 199 199 199 200 201 202 203 203 203 204 205 206 208 209 211 212 211 216 225 231 234 243 252 259 267 272 276 281 284 286 287 289
138 115 125 161 162 177 214 243 187 169 202 246 89 101 189 205 219 216 211 236 272 318 303 193 237 278 273 203 198 208 226 252 262 263 265 260 251 242 229 196 202 217 200 195 200 191 190 189 189 194 195 197 197 197 198 199 199 200 202 203 203 203 203 204 205 206 208 209 212 215 218 224 232 237 242 250 259 264 269 274 278 283 286 288 289 291
103 158 173 165 171 201 214 239 159 173 199 304 73 72 102 126 156 165 208 244 281 324 269 198 188 268 273 189 174 233 229 242 254 256 260 260 251 243 234 209 210 215 199 196 198 193 193 192 194 196 195 196 196 197 199 198 199 200 202 203 203 202 203 204 205 207 209 210 214 216 218 222 231 239 245 249 256 262 267 273 278 282 285 288 291 295
66 207 199 166 181 211 179 50 112 190 198 129 124 91 84 84 86 124 234 252 262 271 248 189 169 246 277 173 136 154 212 227 246 247 251 257 256 243 235 223 211 206 200 201 199 196 195 194 194 192 190 192 195 199 200 199 200 201 202 203 202 201 201 202 204 205 208 211 213 215 216 220 226 234 241 244 250 257 263 270 275 281 285 288 293 297
106 74 308 213 202 174 103 71 27 44 107 140 147 106 97 109 92 117 247 239 261 259 217 192 184 210 274 197 141 154 179 196 221 240 248 257 263 247 222 215 202 192 191 193 196 196 192 190 188 187 190 191 192 196 198 199 201 200 202 202 200 199 200 201 202 204 207 210 212 215 218 221 225 230 234 238 245 252 259 267 274 280 284 289 295 300
156 179 217 218 135 103 107 94 58 63 108 163 159 135 201 219 142 173 180 156 247 259 188 194 192 200 242 246 138 130 143 194 217 238 247 249 253 243 205 194 188 181 179 180 190 188 181 185 185 188 192 189 187 191 195 198 200 201 201 200 197 197 199 199 200 202 205 208 212 215 218 221 224 227 231 235 242 249 256 265 272 278 283 290 295 297
199 206 168 112 194 177 155 124 94 109 177 196 173 164 240 264 251 237 221 186 234 253 131 135 175 212 242 253 238 242 240 225 224 239 254 254 249 239 171 159 162 163 175 182 187 184 183 187 186 189 190 186 187 191 193 196 199 201 200 198 195 195 196 197 198 201 204 208 211 214 216 220 223 226 229 235 241 247 253 260 266 273 278 284 287 288
227 254 137 164 227 191 182 184 194 189 180 187 182 176 212 232 248 252 243 238 257 254 140 125 142 243 259 262 241 236 237 231 216 229 249 259 265 272 91 117 159 173 190 194 193 187 187 192 188 188 189 187 190 191 191 194 199 200 199 196 194 194 194 195 197 200 203 207 210 213 215 218 221 224 228 233 240 245 250 256 262 270 274 279 283 287
237 267 171 173 173 164 188 206 185 120 156 185 179 176 224 212 215 252 266 277 288 297 210 157 179 248 264 280 222 227 240 235 219 227 235 245 256 262 76 247 235 210 206 203 203 198 193 194 189 188 190 192 192 191 190 193 197 198 197 195 192 192 193 194 197 199 202 206 209 212 214 216 218 221 226 232 238 244 250 257 264 272 276 280 285 290
242 269 164 143 30 160 179 209 85 103 148 177 115 178 239 216 202 249 297 283 304 309 264 187 214 250 249 207 184 162 254 225 225 234 229 238 240 217 217 242 228 218 212 203 208 206 200 196 192 192 194 194 193 191 191 193 195 195 194 192 190 192 193 194 196 198 201 204 207 210 212 214 216 219 224 229 236 244 251 258 265 273 279 283 285 289
232 272 123 104 314 157 148 2 95 138 183 155 162 198 210 21 206 232 264 103 101 278 266 218 249 270 276 241 193 178 207 212 223 233 226 236 237 209 224 239 222 216 209 203 211 206 197 195 195 196 196 194 193 193 194 195 195 195 193 189 187 190 193 193 196 197 199 202 204 207 209 211 214 217 222 228 236 246 254 262 269 277 284 286 287 289
221 265 175 156 183 114 356 347 87 3 10 141 190 197 140 55 326 241 261 271 240 256 270 271 271 278 277 265 161 160 205 220 225 227 222 234 241 224 232 240 231 220 205 206 215 208 199 197 198 199 199 198 197 195 195 194 195 195 194 190 186 188 190 191 193 196 198 200 201 203 206 208 211 216 221 229 239 248 257 266 273 279 285 287 288 291
196 252 232 159 85 101 89 236 139 61 24 106 263 224 125 211 178 162 218 244 245 250 274 280 280 279 259 248 167 165 196 216 224 222 218 228 230 222 233 242 237 219 206 214 215 207 202 201 202 201 200 199 198 195 192 192 193 194 193 192 190 189 190 190 192 195 197 198 199 200 202 205 209 215 222 230 242 253 263 272 276 281 285 286 289 291
162 238 245 42 6 104 142 214 191 177 157 21 270 207 286 261 180 179 189 207 243 248 275 283 284 279 248 203 192 195 194 207 216 213 216 224 222 217 225 236 232 217 214 215 209 206 204 203 203 202 199 197 195 191 188 190 192 191 191 191 189 189 189 190 192 193 194 196 198 198 199 203 207 214 223 233 245 258 269 277 281 284 286 287 291 293
105 236 241 93 349 209 189 199 198 193 174 175 202 185 188 198 89 281 241 185 239 244 255 268 273 275 265 121 169 197 198 207 205 205 216 218 220 223 224 229 229 222 223 218 207 204 202 200 199 198 197 192 188 186 188 190 189 187 188 188 187 187 187 189 191 192 193 194 195 197 198 201 207 213 223 235 249 262 272 280 283 286 288 291 295 296
159 211 225 202 213 225 222 204 203 224 181 178 191 185 188 181 152 218 231 204 203 237 239 236 259 269 269 105 163 192 196 212 200 208 223 215 218 227 226 227 223 217 221 219 212 204 194 193 192 191 191 185 184 187 187 186 185 185 186 186 185 186 186 188 190 190 192 192 193 195 197 201 206 212 223 236 250 264 274 281 284 287 290 296 298 297
159 151 218 233 237 232 245 17 327 297 274 201 226 205 192 184 179 201 217 204 166 235 248 242 263 268 261 100 180 198 181 209 201 210 223 208 212 222 223 225 223 222 224 218 212 202 186 187 186 185 188 187 188 188 184 183 185 185 185 184 184 185 185 188 189 189 190 191 192 194 197 200 205 211 222 235 249 263 274 280 283 288 293 297 299 299
90 117 214 244 268 263 135 114 162 290 151 205 239 217 191 196 201 205 221 210 182 225 231 196 246 262 263 113 222 231 155 236 224 216 225 217 219 225 222 219 217 226 233 223 212 199 181 182 182 184 190 190 189 186 183 184 185 183 183 184 185 184 185 187 187 188 188 189 191 193 196 199 203 209 219 232 247 263 273 279 285 291 296 297 298 298
167 194 193 215 255 257 244 212 199 197 198 219 238 206 198 206 204 211 341 315 240 239 231 210 240 256 258 130 218 204 122 258 245 208 241 244 235 235 226 213 213 223 230 224 208 192 188 189 190 193 193 192 189 186 184 184 183 181 183 185 185 184 185 185 185 186 187 188 190 192 194 197 201 207 216 230 247 262 271 279 286 291 295 294 294 296
180 184 177 198 225 230 238 240 216 151 191 233 256 190 198 204 198 201 222 215 235 240 226 216 244 256 266 267 256 229 208 251 239 178 237 251 243 249 253 238 228 222 222 221 207 194 198 197 196 197 195 192 189 185 185 184 182 181 181 184 185 183 183 183 183 184 186 187 188 190 192 195 199 205 213 227 242 257 268 277 284 288 293 293 295 301
166 186 192 209 225 223 234 248 245 110 153 206 211 189 196 207 204 203 219 223 229 232 221 230 243 254 268 274 274 266 251 254 248 199 219 233 219 222 236 242 238 227 216 216 207 199 203 203 200 199 196 193 189 186 186 184 182 180 179 181 184 184 182 182 182 184 185 186 186 188 190 193 197 202 210 223 235 249 262 274 281 286 292 295 301 306
139 214 208 218 233 233 239 251 249 218 184 199 200 191 199 208 207 211 226 227 208 96 241 241 244 253 262 267 271 270 262 260 265 262 258 256 231 205 216 231 235 230 220 213 210 207 208 207 202 200 197 192 188 187 186 185 182 180 178 179 181 182 182 181 181 182 183 184 185 187 189 191 194 199 207 217 228 244 259 270 279 286 295 302 308 310
171 234 224 229 244 244 246 254 254 249 239 227 221 217 215 211 206 214 228 228 210 222 242 247 252 257 258 256 258 262 263 262 267 271 273 273 241 191 215 234 237 234 223 215 213 213 213 210 202 197 195 190 188 187 185 183 181 179 178 179 181 182 181 181 181 181 182 183 184 186 187 188 191 197 204 212 224 241 254 266 277 291 302 309 315 316
197 242 240 246 258 257 254 257 257 257 258 254 250 244 239 234 222 218 232 232 224 233 244 251 256 258 257 255 256 262 271 273 274 279 281 276 255 228 230 242 243 235 222 216 216 214 212 209 201 195 190 189 189 187 185 183 181 178 177 177 179 181 181 181 181 180 181 182 182 183 184 186 189 193 198 207 220 235 249 264 279 297 310 316 321 319
229 238 249 255 261 256 253 254 255 255 259 259 259 253 248 248 240 229 237 237 232 242 250 251 256 260 256 256 263 275 279 279 281 281 278 273 268 262 258 258 256 247 226 212 213 211 208 205 198 193 191 192 191 187 185 184 180 176 175 175 177 179 180 180 180 180 180 180 180 181 182 184 187 190 196 205 217 232 247 263 281 306 318 321 323 321
215 238 247 247 249 249 245 246 251 255 260 265 258 247 245 247 244 236 239 240 238 247 253 252 251 251 251 258 267 270 270 272 274 271 269 267 267 267 263 262 265 265 251 229 220 210 202 200 197 196 196 194 189 186 185 180 175 174 175 175 176 178 179 179 179 179 179 178 179 180 180 183 185 188 195 204 216 230 245 266 292 319 324 322 324 323
202 223 233 227 235 247 245 247 254 259 263 242 230 236 240 245 248 247 247 246 242 242 248 252 246 248 257 262 261 262 264 265 263 263 265 268 270 270 264 262 266 267 263 255 240 210 197 200 200 197 195 190 187 188 185 178 174 175 176 175 176 176 176 176 177 177 177 176 178 179 180 183 184 187 195 203 214 227 241 272 306 328 325 323 325 320
204 214 228 224 229 248 249 251 253 240 233 229 227 232 237 241 244 246 248 249 247 242 244 254 255 257 259 255 253 259 263 261 262 266 270 273 280 280 270 268 268 267 267 265 248 209 201 202 198 195 191 188 187 184 179 176 175 175 175 174 174 173 173 174 175 176 176 176 177 179 181 183 183 186 194 200 209 221 232 275 321 332 326 324 325 314
213 219 226 221 230 247 246 236 229 228 231 234 227 228 237 243 247 252 255 256 255 254 254 256 256 256 256 257 258 263 263 263 269 273 273 274 274 266 266 268 267 267 269 269 249 215 205 196 189 192 188 182 178 172 169 172 174 173 172 172 171 172 173 173 174 174 175 175 177 180 181 182 184 187 191 196 205 215 221 282 327 333 328 322 320 313
219 222 222 220 229 232 216 215 223 234 242 198 195 226 240 248 251 254 256 253 251 254 255 255 255 255 259 264 266 266 265 269 277 275 272 271 260 250 254 259 263 266 268 267 255 229 206 191 186 188 180 170 168 168 166 171 173 171 169 170 171 171 171 172 173 173 174 175 178 181 182 182 184 186 188 192 200 204 203 274 318 332 329 323 325 322
220 223 223 224 222 217 224 225 229 257 289 191 208 225 230 232 236 244 251 243 238 248 249 249 252 255 259 263 267 269 272 280 283 273 270 268 256 238 242 250 257 263 266 269 268 243 209 196 189 184 174 163 165 169 169 170 172 168 166 168 170 169 169 171 172 173 175 177 180 181 182 183 184 185 186 190 194 194 193 263 322 330 326 329 334 330
217 218 220 225 215 212 230 235 231 245 238 213 222 232 236 241 241 243 253 236 219 240 246 245 247 252 257 260 262 266 277 290 271 266 270 272 259 220 231 245 248 255 262 265 260 209 188 189 184 179 171 162 166 173 172 170 169 166 164 167 168 168 169 171 172 174 177 179 180 181 182 182 183 184 187 188 188 185 187 251 326 340 346 347 340 332
218 217 218 229 229 217 231 238 227 231 224 208 222 236 245 249 241 165 252 242 222 238 246 248 250 251 253 256 257 259 259 253 262 263 266 271 262 201 217 238 239 243 254 242 190 170 162 162 162 164 164 161 166 172 171 169 167 165 164 166 168 168 168 172 175 176 177 178 179 180 180 180 182 185 187 187 185 180 178 291 358 7 3 354 345 336
217 215 214 227 231 223 231 238 233 240 225 187 211 233 243 235 160 154 246 240 227 236 242 246 251 250 248 251 255 253 241 236 246 255 258 266 264 192 209 226 227 216 193 162 172 164 153 152 152 156 163 166 169 170 169 168 167 166 165 166 166 167 171 176 177 175 175 176 177 178 178 178 180 183 185 185 182 176 166 58 21 14 2 353 347 338
211 209 209 218 220 219 227 234 236 238 209 180 214 230 212 136 137 204 234 229 228 238 240 240 247 249 246 247 246 240 239 235 237 248 254 259 247 226 217 207 204 185 162 162 164 155 149 151 155 159 165 168 167 168 168 168 166 166 166 165 166 171 175 176 174 172 172 173 173 175 176 176 177 179 181 181 178 172 163 77 19 8 360 352 344 338
198 200 210 217 219 221 226 233 243 242 192 190 223 223 162 149 199 224 230 234 237 242 243 240 241 242 242 241 236 235 241 241 241 247 252 252 248 239 196 158 160 150 141 152 160 159 153 147 152 157 162 167 167 168 169 168 165 165 164 163 166 171 171 171 171 170 170 170 170 172 172 171 173 173 173 175 175 172 174 10 5 3 358 350 343 341
183 189 205 202 204 224 229 224 239 243 184 194 218 217 171 199 228 229 231 240 239 239 245 245 241 241 242 239 236 235 239 244 247 246 246 248 247 234 190 178 177 165 155 154 165 167 161 149 151 157 160 164 166 167 169 168 164 164 164 162 164 166 165 167 169 169 168 167 167 167 167 166 168 167 166 169 168 161 172 340 5 8 1 354 351 347
184 191 216 194 179 209 224 210 217 232 210 198 207 210 200 211 224 231 236 241 238 236 241 243 241 242 241 239 241 240 239 243 247 247 246 245 240 222 195 183 178 174 168 162 169 168 162 148 142 151 156 161 165 167 170 169 164 161 161 160 161 163 163 165 168 167 166 165 163 162 163 163 163 163 161 160 157 152 146 64 29 23 13 4 359 348
197 205 227 223 199 204 219 216 217 229 227 208 206 215 221 220 223 230 236 242 242 238 236 240 244 243 240 239 242 243 243 244 246 245 243 242 235 213 176 178 180 172 167 163 166 170 167 157 146 144 150 161 166 168 170 169 163 156 155 159 162 164 164 165 166 165 164 163 162 162 162 160 158 159 159 154 149 147 133 78 44 35 24 12 2 339
238 243 251 250 244 239 237 237 233 231 230 220 215 222 230 230 229 233 239 246 250 247 242 243 245 245 244 241 239 240 242 242 243 243 240 239 235 197 166 181 176 160 164 165 163 168 164 154 148 141 140 157 165 166 167 168 164 158 158 163 166 166 166 166 165 164 163 163 162 162 160 156 153 154 155 151 146 140 127 84 51 43 34 17 349 325
283 287 283 278 284 277 256 251 254 246 240 233 226 229 236 240 241 239 238 241 244 246 248 249 250 252 250 239 227 234 241 242 243 245 242 236 228 199 188 189 177 170 176 171 164 164 158 149 150 149 140 153 164 165 165 165 164 162 163 165 167 168 168 166 163 162 162 162 161 161 158 153 151 151 149 146 141 137 128 91 57 52 49 26 321 318
307 328 328 297 286 282 277 290 295 287 281 275 261 248 247 249 246 242 240 244 247 250 255 257 257 259 258 245 231 236 245 247 245 245 243 236 227 214 200 190 179 175 172 163 163 164 160 155 160 158 150 155 163 164 163 162 164 165 165 166 167 167 165 164 163 162 161 161 161 159 156 153 153 151 146 140 136 136 133 111 73 62 64 54 285 307
315 311 305 297 287 277 277 286 291 291 292 291 288 289 289 281 278 276 277 278 275 273 273 271 269 269 267 261 256 251 251 253 251 249 246 237 227 218 205 195 183 171 166 170 171 169 168 164 159 155 151 157 161 162 161 161 164 166 165 165 167 166 163 162 162 161 160 160 159 156 153 153 154 152 145 135 128 126 126 118 88 68 70 113 293 311
282 274 272 279 277 270 274 284 288 289 290 291 297 302 301 304 310 308 300 295 288 282 282 283 285 286 281 274 270 264 260 260 256 251 247 239 233 225 207 190 176 169 172 173 171 172 172 163 159 156 153 158 162 161 159 159 162 165 166 166 166 166 164 161 159 158 159 159 156 154 152 152 151 149 143 133 126 118 112 112 92 63 62 335 309 319
246 254 255 262 265 267 282 303 314 307 293 288 294 298 298 305 307 297 290 289 283 280 283 286 285 286 284 280 275 267 264 265 265 264 260 250 242 229 200 182 176 176 176 168 166 173 173 165 163 159 153 158 162 160 157 158 161 164 166 166 166 167 166 162 159 158 160 160 157 155 155 154 150 147 141 131 125 117 108 106 101 97 122 190 312 322